Location: ????
(33.1659°N, 35.6604°E)
Time: 10:45:10
(UTC+00:00)

GP-B - Pass Details

Date: 20 September 2019
Orbit: 631 x 635 km, 89.8° (Epoch: 22 October)

Event Time Altitude Azimuth Distance (km) Brightness Sun altitude
Rises 16:38:18 0° 0° (N) 2,931 6.7 -13.5°
Reaches altitude 10° 16:40:32 10° 359° (N) 2,019 5.8 -13.9°
Maximum altitude 16:44:58 77° 274° (W) 653 3.3 -14.9°
Drops below altitude 10° 16:49:22 10° 189° (S) 2,004 5.6 -15.8°
Sets 16:51:34 0° 187° (S) 2,908 6.5 -16.2°
